DW9612 Weather Reports


time (UTC)temp
F
wind
direction
speed
knots
gust
knots
rain 1hr
in
rain 24hr
in
rain mn
in
humidity
%
barometer
mb
20260507223006 77 292 2.6 7.0 0.00 0.00 0.00 30 1012.1
20260507221513 77 273 1.7 6.1 0.00 0.00 0.00 24 1012.2
20260507220052 76 263 3.5 7.8 0.00 0.00 0.00 31 1012.5
20260507214619 76 243 0.9 8.7 0.00 0.00 0.00 32 1012.6
20260507213109 76 229 3.5 7.8 0.00 0.00 0.00 35 1012.8
20260507211504 76 249 2.6 7.8 0.00 0.00 0.00 36 1013.0
20260507210104 75 219 4.3 9.6 0.00 0.00 0.00 32 1013.1
20260507204502 74 248 4.3 9.6 0.00 0.00 0.00 36 1013.3
20260507203009 74 211 4.3 8.7 0.00 0.00 0.00 37 1013.4
20260507201510 73 230 3.5 8.7 0.00 0.00 0.00 42 1013.5
20260507194636 72 238 4.3 7.8 0.00 0.00 0.00 45 1013.9
20260507193006 72 232 2.6 7.0 0.00 0.00 0.00 40 1013.9
20260507191508 71 245 5.2 8.7 0.00 0.00 0.00 44 1013.9
20260507190058 71 243 4.3 9.6 0.00 0.00 0.00 44 1014.1
20260507184518 70 263 3.5 9.6 0.00 0.00 0.00 44 1014.2
20260507183025 70 242 2.6 7.8 0.00 0.00 0.00 47 1014.3
20260507181524 69 286 4.3 10.4 0.00 0.00 0.00 45 1014.4
20260507180010 68 236 2.6 7.8 0.00 0.00 0.00 46 1014.6
20260507174516 68 227 3.5 8.7 0.00 0.00 0.00 50 1014.7
20260507173035 67 271 3.5 6.1 0.00 0.00 0.00 48 1014.8
20260507171532 67 246 4.3 9.6 0.00 0.00 0.00 52 1014.9
20260507170018 66 208 6.1 9.6 0.00 0.00 0.00 54 1015.0
20260507164528 65 219 4.3 9.6 0.00 0.00 0.00 58 1015.0
20260507163032 64 241 4.3 8.7 0.00 0.00 0.00 60 1014.9
20260507161539 63 211 5.2 9.6 0.00 0.00 0.00 63 1015.0
20260507160024 63 281 1.7 4.3 0.00 0.00 0.00 62 1015.1
20260507154532 63 240 1.7 4.3 0.00 0.00 0.00 62 1015.1
20260507153039 61 346 0.0 6.1 0.00 0.00 0.00 63 1015.1
20260507151533 60 274 1.7 5.2 0.00 0.00 0.00 66 1015.0
20260507150020 60 259 0.9 7.8 0.00 0.00 0.00 64 1015.0
20260507144532 60 270 0.0 4.3 0.00 0.00 0.00 65 1014.8
20260507143037 60 323 0.0 6.1 0.00 0.00 0.00 64 1014.8
20260507141548 60 321 1.7 6.1 0.00 0.00 0.00 64 1014.7
20260507140030 59 221 4.3 13.9 0.00 0.00 0.00 64 1014.3
20260507134531 59 221 7.0 15.6 0.00 0.00 0.00 65 1014.0
20260507133033 58 231 0.9 5.2 0.00 0.00 0.00 69 1014.1
20260507131643 58 224 0.9 7.8 0.00 0.00 0.00 71 1014.0
20260507130038 58 249 1.7 6.1 0.00 0.00 0.00 71 1013.9
20260507124530 58 261 5.2 8.7 0.00 0.00 0.00 69 1013.8
20260507123029 58 288 2.6 11.3 0.00 0.00 0.00 70 1013.6
20260507121536 57 254 3.5 7.8 0.00 0.00 0.00 71 1013.6
20260507120021 58 232 3.5 10.4 0.00 0.00 0.00 71 1013.6
20260507114516 57 239 3.5 5.2 0.00 0.00 0.00 72 1013.7
20260507113014 57 227 3.5 7.0 0.00 0.00 0.00 71 1013.8
20260507111514 58 267 0.0 5.2 0.00 0.00 0.00 70 1013.9
20260507104601 58 214 1.7 6.1 0.00 0.00 0.00 69 1013.7
20260507103100 59 225 5.2 9.6 0.00 0.00 0.00 69 1013.7
20260507101600 59 230 1.7 8.7 0.00 0.00 0.00 68 1014.0
20260507100046 59 238 3.5 7.0 0.00 0.00 0.00 67 1014.0
20260507094542 60 244 2.6 9.6 0.00 0.00 0.00 66 1013.8
20260507093049 60 263 3.5 8.7 0.00 0.00 0.00 65 1013.8
20260507091543 60 273 0.0 4.3 0.00 0.00 0.00 63 1013.8
20260507090026 61 238 3.5 11.3 0.00 0.00 0.00 61 1013.6
20260507084525 60 20 3.5 7.0 0.00 0.00 0.00 61 1013.5
20260507083033 61 27 1.7 5.2 0.00 0.00 0.00 60 1013.4
20260507081533 62 264 2.6 7.8 0.00 0.00 0.00 59 1013.1
20260507080016 62 241 1.7 6.1 0.00 0.00 0.00 59 1013.0
20260507074514 62 355 0.0 7.0 0.00 0.00 0.00 58 1012.9
20260507073014 62 17 1.7 6.1 0.00 0.00 0.00 57 1012.9
20260507071536 63 304 3.5 11.3 0.00 0.00 0.00 56 1012.6
20260507070058 63 206 2.6 10.4 0.00 0.00 0.00 54 1012.6
20260507064552 64 223 1.7 11.3 0.00 0.00 0.00 54 1012.7
20260507063055 64 205 1.7 7.0 0.00 0.00 0.00 52 1012.6
20260507061557 65 275 4.3 9.6 0.00 0.00 0.00 52 1012.4
20260507060036 66 219 5.2 12.2 0.00 0.00 0.00 52 1012.3
20260507054532 66 250 6.1 12.2 0.00 0.00 0.00 51 1012.2
20260507053052 66 240 7.8 11.3 0.00 0.00 0.00 50 1012.3
20260507051540 66 215 7.8 13.9 0.00 0.00 0.00 51 1012.3
20260507050013 67 240 6.1 13.0 0.00 0.00 0.00 50 1012.3
20260507044513 67 240 3.5 9.6 0.00 0.00 0.00 50 1012.2
20260507043014 68 227 1.7 7.0 0.00 0.00 0.00 49 1012.2
20260507041513 69 223 3.5 9.6 0.00 0.00 0.00 50 1012.2
20260507040115 69 222 5.2 11.3 0.00 0.00 0.00 50 1011.8
20260507034602 70 242 9.6 14.8 0.00 0.00 0.00 49 1011.4
20260507033100 70 232 5.2 11.3 0.00 0.00 0.00 49 1011.4
20260507031558 71 230 4.3 7.8 0.00 0.00 0.00 47 1010.9
20260507030040 73 225 1.7 9.6 0.00 0.00 0.00 44 1010.8
20260507024542 73 182 3.5 10.4 0.00 0.00 0.00 46 1010.3
20260507023041 74 336 1.7 17.4 0.00 0.00 0.00 46 1010.7
20260507021543 74 222 7.0 13.9 0.00 0.00 0.00 44 1009.4
20260507020023 75 212 7.8 13.9 0.00 0.00 0.00 44 1009.4
20260507014523 75 214 5.2 13.9 0.00 0.00 0.00 45 1009.4
20260507013029 76 236 7.8 15.6 0.00 0.00 0.00 43 1009.4
20260507011540 76 215 7.0 13.0 0.00 0.00 0.00 45 1009.5
20260507010025 76 228 4.3 10.4 0.00 0.00 0.00 47 1009.7
20260507004524 77 220 5.2 8.7 0.00 0.00 0.00 47 1009.7
20260507003019 77 205 4.3 8.7 0.00 0.00 0.00 46 1009.7
20260507001632 77 263 4.3 8.7 0.00 0.00 0.00 46 1009.6
20260507000019 78 222 4.3 10.4 0.00 0.00 0.00 48 1009.7
20260506234527 80 275 5.2 9.6 0.00 0.00 0.00 45 1009.8
20260506233027 81 284 0.9 6.1 0.00 0.00 0.00 42 1009.8
20260506231539 79 227 0.0 6.1 0.00 0.00 0.00 42 1010.0
20260506230031 80 236 4.3 10.4 0.00 0.00 0.00 42 1010.0
20260506224533 81 277 1.7 5.2 0.00 0.00 0.00 45 1010.1